Tracking 19247 objects as of 24-Sep-2018
HD Live streaming from Space Station
objects crossing your sky now

FENGYUN 1C DEB

Track FENGYUN 1C DEB now!
10-day predictions


NORAD ID: 31923
Int'l Code: 1999-025CMA
Perigee: 848.9 km
Apogee: 1,314.6 km
Inclination: 98.4 °
Period: 106.7 minutes
Semi major axis: 7452 km
RCS: 0.0082 m2 (small)
Launch date: May 10, 1999
Source: People's Republic of China (PRC)
Launch site: Taiyaun Space Center, China (TSC)

Note: This is SATELLITE DEBRIS
aabbcc
Your satellite tracking list
Your tracking list is empty




NASA's NSSDC Master Catalog

Two Line Element Set (TLE):
1 31923U 99025CMA 18266.24653629 +.00000302 +00000-0 +39840-3 0  9995
2 31923 098.4339 002.2196 0312450 299.5032 057.5280 13.49369672280198
Source of the keplerian elements: AFSPC